User: anonymous   Login
Location: *
(44.1392°N, 4.8079°E)
Time: 17:11:53
(UTC+00:00)
Language:

SL-16 R/B - Orbit

View from above orbital plane
View from above orbital plane
View from above satellite
View from above satellite

Ground track
Ground track

The orbit data is extracted from the following two-line orbital elements,

1 27006U 01056F   21258.92489839 -.00000019  00000-0  28383-4 0  9996
2 27006  99.5373  31.2539 0013939 240.0784 228.5568 13.70968683989032
Epoch (UTC): 15 September 2021 22:11:51
Eccentricity: 0.0013939
inclination: 99.5373°
perigee height: 986 km
apogee height: 1006 km
right ascension of ascending node: 31.2539°
argument of perigee: 240.0784°
revolutions per day: 13.70968683
mean anomaly at epoch: 228.5568°
orbit number at epoch: 98903

The dashed part of the orbit path shows where the satellite is in the earth's shadow,  

DLR